Flag for Botswana Weather past 2 weeks in Molepolole, Botswana

Now
91 °F

Passing clouds.


Feels Like: 89 °F
Forecast: 69 / 93 °F
Wind: 5 mph from North

Location: Seretse Khama International Airport

Current Time: Dec 21, 2014 at 1:46:57 PM

Latest Report: Dec 21, 2014 at 1:00 PM


Visibility: N/A

Pressure: 29.98 "Hg

Humidity: 26%

Dew point: 52 °F

Location of MolepololeLocation

Historic Weather in Molepolole — Graph

°F

Molepolole temperature yesterday

Maximum temperature yesterday: 91 °F (at 4:00 PM)
Minimum temperature yesterday: 68 °F (at 5:00 AM)
Average temperature yesterday: 79 °F

Past Weeks' High & Low Weather Summary

 TemperatureHumidityPressure
High93 °F (Dec 13, 3:00 PM)100% (Dec 9, 6:00 AM)30.15 "Hg (Dec 9, 6:00 AM)
Low63 °F (Dec 9, 7:00 AM)21% (Dec 13, 5:00 PM)29.86 "Hg (Dec 15, 5:00 PM)
Average76 °F63%30.02 "Hg
* Reported Dec 6 12:00 Noon — Dec 21 12:00 Noon, Molepolole, Weather by CustomWeather, © 2014

Note: Actual official high and low records may vary slightly from our data, if they occured in-between our weather recording intervals... More about our weather records

Advertising

Molepolole weather history for previous 24 hours

 ConditionsComfort  
Time TempWeatherWind HumidityBarometerVisibility
12:00 PM
Dec 21
90 °FPassing clouds.6 mph31%30.01 "HgN/A
11:00 AM88 °FPassing clouds.7 mph33%30.01 "HgN/A
10:00 AM84 °FPassing clouds.8 mph37%30.04 "HgN/A
9:00 AM79 °FPassing clouds.8 mph51%30.04 "HgN/A
8:00 AM75 °FSunny.9 mph61%30.04 "Hg10 mi
7:00 AM75 °FSunny.3 mph61%30.01 "Hg10 mi
6:00 AM70 °FSunny.5 mph78%29.98 "Hg10 mi
5:00 AM70 °FSunny.3 mph38%29.98 "Hg10 mi
4:00 AM72 °FClear.7 mph65%29.98 "Hg10 mi
12:00 AM75 °FPassing clouds.5 mph50%30.01 "HgN/A
11:00 PM
Dec 20
77 °FPassing clouds.7 mph51%30.04 "HgN/A
9:00 PM81 °FPassing clouds.7 mph45%30.01 "HgN/A
8:00 PM81 °FPassing clouds.5 mph51%30.01 "HgN/A
7:00 PM82 °FPassing clouds.3 mph45%29.95 "HgN/A
6:00 PM84 °FScattered clouds.5 mph37%29.92 "HgN/A
5:00 PM88 °FThunderstorms. Scattered clouds.12 mph31%29.89 "HgN/A
4:00 PM91 °FScattered clouds.5 mph30%29.92 "HgN/A
3:00 PM90 °FScattered clouds.7 mph38%29.95 "HgN/A
Weather by CustomWeather, © 2014

See weather overviewHow to use our weather pages